Tiempo cada hora Barsh

Hoy, 28 Febrero, Domingo

Tiempo Temperatura Precipitaciones Viento Presión Humedad
00:00 -4°C° 0.5 mm 3 mps 729 mmHg 97%
01:00 -2°C° 0.5 mm 3 mps 729 mmHg 97%
02:00 -2°C° 0.4 mm 3 mps 729 mmHg 98%
03:00 -2°C° 0.4 mm 3 mps 729 mmHg 98%
04:00 -2°C° 0 mm 2 mps 729 mmHg 97%
05:00 -3°C° 0.2 mm 2 mps 729 mmHg 97%
06:00 -3°C° 0.2 mm 2 mps 729 mmHg 97%
07:00 -4°C° 0.2 mm 2 mps 729 mmHg 97%
08:00 -4°C° 0.1 mm 2 mps 729 mmHg 97%
09:00 -4°C° 0.1 mm 2 mps 729 mmHg 96%
10:00 -5°C° 0.1 mm 2 mps 730 mmHg 95%
11:00 -6°C° 0.1 mm 3 mps 730 mmHg 95%
12:00 -6°C° 0.1 mm 3 mps 730 mmHg 95%
13:00 -7°C° 0.1 mm 4 mps 731 mmHg 94%
14:00 -8°C° 0 mm 4 mps 731 mmHg 94%
15:00 -9°C° 0 mm 4 mps 731 mmHg 93%
16:00 -10°C° 0 mm 4 mps 732 mmHg 92%
17:00 -12°C° 0 mm 4 mps 732 mmHg 93%
18:00 -15°C° 0 mm 4 mps 733 mmHg 93%
19:00 -15°C° 0 mm 3 mps 734 mmHg 94%
20:00 -16°C° 0 mm 3 mps 734 mmHg 94%
21:00 -18°C° 0 mm 3 mps 735 mmHg 95%
22:00 -18°C° 0 mm 2 mps 735 mmHg 95%
23:00 -18°C° 0 mm 2 mps 736 mmHg 96%

Mañana, 1 Marzo, Lunes

Tiempo Temperatura Precipitaciones Viento Presión Humedad
00:00 -19°C° 0 mm 2 mps 736 mmHg 96%
01:00 -19°C° 0 mm 2 mps 737 mmHg 96%
02:00 -19°C° 0 mm 2 mps 737 mmHg 96%
03:00 -19°C° 0 mm 2 mps 738 mmHg 96%
04:00 -19°C° 0 mm 2 mps 738 mmHg 96%
05:00 -19°C° 0 mm 2 mps 739 mmHg 96%
06:00 -19°C° 0 mm 2 mps 739 mmHg 96%
07:00 -19°C° 0 mm 2 mps 740 mmHg 96%
08:00 -18°C° 0 mm 2 mps 740 mmHg 95%
09:00 -18°C° 0 mm 2 mps 741 mmHg 94%
10:00 -17°C° 0 mm 2 mps 741 mmHg 93%
11:00 -17°C° 0 mm 2 mps 742 mmHg 92%
12:00 -16°C° 0 mm 2 mps 742 mmHg 91%
13:00 -16°C° 0 mm 2 mps 742 mmHg 90%
14:00 -16°C° 0 mm 2 mps 743 mmHg 91%
15:00 -17°C° 0 mm 3 mps 743 mmHg 92%
16:00 -17°C° 0 mm 3 mps 743 mmHg 93%
17:00 -18°C° 0 mm 2 mps 743 mmHg 95%
18:00 -19°C° 0 mm 2 mps 743 mmHg 97%
19:00 -19°C° 0 mm 1 mps 743 mmHg 98%
20:00 -20°C° 0 mm 1 mps 743 mmHg 99%
21:00 -21°C° 0 mm 1 mps 744 mmHg 99%
22:00 -21°C° 0 mm 1 mps 744 mmHg 99%
23:00 -22°C° 0 mm 1 mps 744 mmHg 99%

Pasado mañana, 2 Marzo, Martes

Tiempo Temperatura Precipitaciones Viento Presión Humedad
00:00 -22°C° 0 mm 1 mps 744 mmHg 99%
01:00 -25°C° 0 mm 2 mps 743 mmHg 99%
02:00 -26°C° 0 mm 2 mps 743 mmHg 99%
03:00 -26°C° 0 mm 2 mps 743 mmHg 99%
04:00 -26°C° 0 mm 2 mps 742 mmHg 99%
05:00 -27°C° 0 mm 3 mps 742 mmHg 99%
06:00 -27°C° 0 mm 3 mps 741 mmHg 99%
07:00 -27°C° 0 mm 4 mps 741 mmHg 99%
08:00 -26°C° 0 mm 4 mps 740 mmHg 98%
09:00 -25°C° 0 mm 5 mps 740 mmHg 98%
10:00 -24°C° 0 mm 6 mps 739 mmHg 97%
11:00 -23°C° 0.1 mm 7 mps 739 mmHg 96%
12:00 -21°C° 0.1 mm 7 mps 738 mmHg 95%
13:00 -21°C° 0.1 mm 8 mps 737 mmHg 94%
14:00 -19°C° 0.3 mm 8 mps 737 mmHg 94%
15:00 -18°C° 0.3 mm 8 mps 736 mmHg 93%
16:00 -17°C° 0.3 mm 8 mps 735 mmHg 93%
17:00 -16°C° 0.3 mm 8 mps 735 mmHg 93%
18:00 -16°C° 0.3 mm 8 mps 734 mmHg 93%
19:00 -15°C° 0.3 mm 8 mps 734 mmHg 93%
20:00 -13°C° 0.3 mm 7 mps 733 mmHg 93%
21:00 -12°C° 0.3 mm 7 mps 733 mmHg 94%
22:00 -11°C° 0.3 mm 7 mps 732 mmHg 94%
23:00 -9°C° 0.2 mm 6 mps 732 mmHg 94%

3 Marzo, Miércoles

Tiempo Temperatura Precipitaciones Viento Presión Humedad
00:00 -9°C° 0.2 mm 6 mps 731 mmHg 94%
01:00 -9°C° 0.2 mm 6 mps 730 mmHg 94%
02:00 -7°C° 0.1 mm 5 mps 730 mmHg 95%
03:00 -7°C° 0.1 mm 5 mps 730 mmHg 95%
04:00 -7°C° 0.1 mm 4 mps 730 mmHg 96%
05:00 -7°C° 0.1 mm 4 mps 730 mmHg 96%
06:00 -7°C° 0.1 mm 4 mps 730 mmHg 96%
07:00 -6°C° 0.1 mm 3 mps 730 mmHg 96%
08:00 -6°C° 0.1 mm 3 mps 730 mmHg 96%
09:00 -5°C° 0.1 mm 3 mps 730 mmHg 96%
10:00 -5°C° 0.1 mm 3 mps 731 mmHg 95%
11:00 -5°C° 0 mm 3 mps 731 mmHg 95%
12:00 -4°C° 0 mm 3 mps 731 mmHg 94%
13:00 -4°C° 0 mm 3 mps 731 mmHg 93%
14:00 -4°C° 0 mm 3 mps 731 mmHg 93%
15:00 -4°C° 0 mm 3 mps 731 mmHg 93%
16:00 -4°C° 0 mm 3 mps 731 mmHg 92%
17:00 -3°C° 0.1 mm 2 mps 731 mmHg 94%
18:00 -4°C° 0.1 mm 2 mps 732 mmHg 95%
19:00 -5°C° 0.1 mm 2 mps 732 mmHg 96%
20:00 -6°C° 0.1 mm 3 mps 732 mmHg 96%
21:00 -7°C° 0.1 mm 3 mps 732 mmHg 95%
22:00 -8°C° 0.1 mm 3 mps 733 mmHg 94%
23:00 -8°C° 0.1 mm 3 mps 733 mmHg 95%

4 Marzo, Jueves

Tiempo Temperatura Precipitaciones Viento Presión Humedad
00:00 -9°C° 0.1 mm 3 mps 733 mmHg 95%
01:00 -10°C° 0.1 mm 3 mps 732 mmHg 95%
02:00 -12°C° 0 mm 3 mps 733 mmHg 95%
03:00 -13°C° 0 mm 3 mps 733 mmHg 95%
04:00 -14°C° 0 mm 3 mps 734 mmHg 95%
05:00 -14°C° 0 mm 3 mps 734 mmHg 95%
06:00 -14°C° 0 mm 3 mps 735 mmHg 95%
07:00 -15°C° 0 mm 3 mps 735 mmHg 95%
08:00 -14°C° 0 mm 3 mps 736 mmHg 94%
09:00 -14°C° 0 mm 3 mps 736 mmHg 92%
10:00 -13°C° 0 mm 3 mps 737 mmHg 91%
11:00 -14°C° 0 mm 4 mps 737 mmHg 92%
12:00 -12°C° 0 mm 4 mps 737 mmHg 92%
13:00 -12°C° 0 mm 5 mps 737 mmHg 92%
14:00 -12°C° 0 mm 5 mps 737 mmHg 92%
15:00 -11°C° 0 mm 6 mps 737 mmHg 92%
16:00 -11°C° 0 mm 6 mps 736 mmHg 91%
17:00 -12°C° 0 mm 7 mps 736 mmHg 91%
18:00 -12°C° 0 mm 8 mps 735 mmHg 90%
19:00 -12°C° 0 mm 9 mps 735 mmHg 90%
20:00 -12°C° 0.2 mm 9 mps 735 mmHg 90%
21:00 -12°C° 0.2 mm 10 mps 734 mmHg 91%
22:00 -12°C° 0.2 mm 10 mps 734 mmHg 92%
23:00 -10°C° 0.2 mm 10 mps 734 mmHg 92%

5 Marzo, Viernes

Tiempo Temperatura Precipitaciones Viento Presión Humedad
00:00 -10°C° 0.2 mm 10 mps 734 mmHg 92%
01:00 -9°C° 0.2 mm 10 mps 734 mmHg 92%
02:00 -9°C° 0.1 mm 10 mps 734 mmHg 92%
03:00 -9°C° 0.1 mm 10 mps 734 mmHg 91%
04:00 -8°C° 0.1 mm 9 mps 734 mmHg 91%
05:00 -9°C° 0.1 mm 9 mps 734 mmHg 92%
06:00 -9°C° 0.1 mm 9 mps 734 mmHg 92%
07:00 -9°C° 0.1 mm 9 mps 734 mmHg 93%
08:00 -8°C° 0.1 mm 8 mps 735 mmHg 93%
09:00 -8°C° 0.1 mm 8 mps 735 mmHg 93%
10:00 -8°C° 0.1 mm 8 mps 735 mmHg 92%
11:00 -8°C° 0.1 mm 8 mps 736 mmHg 92%
12:00 -7°C° 0.1 mm 8 mps 736 mmHg 92%
13:00 -6°C° 0.1 mm 8 mps 736 mmHg 92%
14:00 -6°C° 0.1 mm 8 mps 736 mmHg 92%
15:00 -6°C° 0.1 mm 8 mps 737 mmHg 93%
16:00 -4°C° 0.1 mm 7 mps 737 mmHg 93%
17:00 -4°C° 0.2 mm 7 mps 737 mmHg 94%
18:00 -4°C° 0.2 mm 7 mps 737 mmHg 95%
19:00 -4°C° 0.2 mm 7 mps 737 mmHg 95%
20:00 -5°C° 0.4 mm 8 mps 737 mmHg 96%
21:00 -5°C° 0.4 mm 8 mps 736 mmHg 96%
22:00 -4°C° 0.4 mm 8 mps 736 mmHg 96%
23:00 -4°C° 0.4 mm 9 mps 736 mmHg 96%
Mostrar más

Necesitamos Su Consentimiento

Meteoprog y nuestros Proveedores de Servicios pueden almacenar y acceder a sus datos personales como cookies, identificadores de dispositivo u otras tecnologías similares de su dispositivo y procesar dichos datos para personalizar contenido y anuncios, además de ofrecer funciones de redes sociales y analizar el tráfico.

  • Almacenar y/o acceder a información en su dispositivo

    Se puede almacenar o acceder a cookies, identificadores de dispositivo u otra información de su dispositivo para los fines anteriormente indicados.

  • Anuncios y contenido personalizados, medición de anuncios y contenido, percepciones del público, y desarrollo de productos

    Los anuncios y el contenido pueden personalizarse en base a su perfil. Se pueden añadir más datos para personalizar mejor los anuncios y contenidos. Se puede medir el rendimiento de los anuncios y contenidos. Se puede obtener la percepción sobre el público que ha visto los anuncios y contenidos. Dichos datos pueden usarse para desarrollar o mejorar la experiencia del usuario, sistemas y software.

Al hacer clic en ‘Estoy De Acuerdo’ usted permitirá el uso de las cookies, identificadores de dispositivo, balizas web u otras tecnologías similares indicadas. Su configuración puede cambiarse desde el navegador de su dispositivo.

Para ciertos fines, los intereses legítimos pueden ser considerados por encima del consentimiento. Puede leer más sobre ello en nuestra Política de Privacidad y Cookies.